contact:dominique.lefevre@mio.osupytheas.fr, maurice.libes@osupytheas.fr
Project:EMSO Ligure-ouest http://www.emso-fr.org/EMSO-France
Sensor Aquadopp, line 13 Serial AQD14315 
DOI : "https://doi.org/10.17882/74513; https://doi.org/10.17882/83244" 
Title:EMSO Ligure Ouest : Data ligne ALBATROSS capteur AQUADOPP - deploiement 2021
Id,Date,Profondeur,Latitude,Longitude,X_East,Y_North,Z_Up,Amplitude_X,Amplitude_Y,Amplitude_Z,Batterie,SoundSpeed,Heading,Pitch,Roll,Pressure,Temperature,Speed,Direction
, , m, degrees North, degrees East, m.s-1, m.s-1,m.s-1, 1, 1, 1, Volt, m.s-1, degree, degree, degree, dbar, degree_C, m.s-1, degree
09,2021-10-02T21:30:00,2000.0,42.79,6.0312,0.02,0.001,-0.005,68.0,62.0,66.0,12.7,1504.6,86.5,-0.7,1.2,1990.662,13.27,0.02,87.1
09,2021-10-02T22:00:00,2000.0,42.79,6.0312,0.04,-0.029,0.003,68.0,63.0,66.0,12.7,1504.6,76.1,-0.8,1.1,1990.619,13.27,0.049,125.9
09,2021-10-02T22:30:00,2000.0,42.79,6.0312,0.037,-0.01,-0.004,69.0,61.0,66.0,12.7,1504.6,69.1,-0.7,1.1,1990.647,13.27,0.038,105.1
09,2021-10-02T23:00:00,2000.0,42.79,6.0312,0.036,-0.018,-0.003,68.0,61.0,65.0,12.7,1504.6,72.9,-0.7,1.1,1990.635,13.27,0.04,116.6
09,2021-10-02T23:30:00,2000.0,42.79,6.0312,0.024,-0.019,-0.009,66.0,63.0,62.0,12.7,1504.6,74.2,-0.6,1.1,1990.607,13.27,0.03,128.4
09,2021-10-03T00:00:00,2000.0,42.79,6.0312,0.038,0.001,-0.014,64.0,64.0,66.0,12.7,1504.6,68.0,-0.4,1.1,1990.592,13.27,0.038,88.5
09,2021-10-03T00:30:00,2000.0,42.79,6.0312,0.033,0.003,0.0,66.0,63.0,66.0,12.7,1504.7,61.3,-0.9,1.1,1990.604,13.28,0.033,84.8
09,2021-10-03T01:00:00,2000.0,42.79,6.0312,0.063,-0.01,0.007,67.0,61.0,66.0,12.8,1504.6,63.5,-0.9,1.1,1990.617,13.27,0.063,99.0
09,2021-10-03T01:30:00,2000.0,42.79,6.0312,0.071,-0.012,0.006,69.0,63.0,67.0,12.7,1504.6,64.3,-0.5,1.1,1990.653,13.27,0.072,99.6
09,2021-10-03T02:00:00,2000.0,42.79,6.0312,0.05,-0.018,-0.015,68.0,62.0,65.0,12.8,1504.6,62.3,-0.7,1.1,1990.623,13.27,0.053,109.8
09,2021-10-03T02:30:00,2000.0,42.79,6.0312,0.056,-0.029,-0.009,66.0,64.0,65.0,12.7,1504.6,61.8,-0.6,1.1,1990.632,13.27,0.063,117.4
09,2021-10-03T03:00:00,2000.0,42.79,6.0312,0.052,-0.026,-0.027,66.0,62.0,65.0,12.8,1504.6,73.0,-0.9,1.1,1990.632,13.27,0.058,116.6
09,2021-10-03T03:30:00,2000.0,42.79,6.0312,0.041,-0.032,-0.012,66.0,62.0,64.0,12.7,1504.6,69.8,-1.0,1.1,1990.706,13.27,0.052,128.0
09,2021-10-03T04:00:00,2000.0,42.79,6.0312,0.05,-0.02,-0.034,69.0,66.0,66.0,12.8,1504.6,74.2,-1.0,1.0,1990.708,13.27,0.053,111.8
09,2021-10-03T04:30:00,2000.0,42.79,6.0312,0.06,-0.028,-0.007,68.0,62.0,66.0,12.7,1504.6,74.3,-0.5,1.2,1990.716,13.27,0.066,115.0
09,2021-10-03T05:00:00,2000.0,42.79,6.0312,0.047,-0.043,0.024,69.0,65.0,66.0,12.7,1504.6,75.6,-0.5,1.1,1990.761,13.27,0.063,132.5
09,2021-10-03T05:30:00,2000.0,42.79,6.0312,0.016,-0.032,-0.026,68.0,68.0,64.0,12.7,1504.6,80.0,-1.1,1.1,1990.718,13.27,0.035,153.4
09,2021-10-03T06:00:00,2000.0,42.79,6.0312,0.045,-0.031,0.0,66.0,65.0,68.0,12.7,1504.6,81.2,-0.6,1.2,1990.674,13.27,0.054,124.6
09,2021-10-03T06:30:00,2000.0,42.79,6.0312,0.042,-0.024,-0.017,67.0,66.0,69.0,12.7,1504.6,88.2,-0.7,1.0,1990.696,13.27,0.048,119.7
09,2021-10-03T07:00:00,2000.0,42.79,6.0312,0.027,-0.032,-0.006,71.0,65.0,67.0,12.7,1504.6,87.8,-1.0,1.1,1990.715,13.27,0.041,139.8
09,2021-10-03T07:30:00,2000.0,42.79,6.0312,0.04,-0.022,-0.016,66.0,67.0,69.0,12.7,1504.6,76.8,-0.2,1.1,1990.7,13.27,0.045,118.8
09,2021-10-03T08:00:00,2000.0,42.79,6.0312,0.033,-0.023,0.036,68.0,66.0,69.0,12.7,1504.6,87.6,-0.8,1.1,1990.655,13.27,0.04,124.9
09,2021-10-03T08:30:00,2000.0,42.79,6.0312,0.022,-0.01,0.019,70.0,65.0,69.0,12.7,1504.6,76.1,-1.0,1.1,1990.665,13.27,0.024,114.4
09,2021-10-03T09:00:00,2000.0,42.79,6.0312,0.022,-0.034,-0.029,73.0,67.0,66.0,12.7,1504.6,79.6,-1.0,1.2,1990.685,13.27,0.04,147.1
09,2021-10-03T09:30:00,2000.0,42.79,6.0312,0.017,-0.025,0.009,68.0,66.0,68.0,12.7,1504.6,80.3,-1.0,1.1,1990.612,13.27,0.03,145.8
09,2021-10-03T10:00:00,2000.0,42.79,6.0312,0.029,-0.003,-0.044,68.0,65.0,69.0,12.8,1504.6,80.5,-0.6,1.2,1990.619,13.27,0.029,95.9
09,2021-10-03T10:30:00,2000.0,42.79,6.0312,0.039,-0.023,0.003,69.0,65.0,68.0,12.7,1504.6,93.1,-0.8,1.1,1990.627,13.27,0.045,120.5
09,2021-10-03T11:00:00,2000.0,42.79,6.0312,0.037,-0.014,-0.017,71.0,63.0,69.0,12.7,1504.6,85.0,-0.7,1.1,1990.601,13.27,0.039,110.7
09,2021-10-03T11:30:00,2000.0,42.79,6.0312,0.063,-0.028,-0.024,71.0,68.0,66.0,12.7,1504.6,83.8,-1.2,1.2,1990.638,13.27,0.068,114.0
09,2021-10-03T12:00:00,2000.0,42.79,6.0312,0.063,-0.026,-0.016,71.0,66.0,70.0,12.7,1504.6,86.6,-0.7,1.2,1990.627,13.27,0.068,112.4
09,2021-10-03T12:30:00,2000.0,42.79,6.0312,0.035,-0.022,0.007,70.0,66.0,71.0,12.7,1504.7,84.4,-0.9,1.1,1990.625,13.28,0.041,122.2
09,2021-10-03T13:00:00,2000.0,42.79,6.0312,0.019,-0.021,-0.015,69.0,67.0,71.0,12.8,1504.6,80.3,-0.6,1.2,1990.639,13.27,0.028,137.9
09,2021-10-03T13:30:00,2000.0,42.79,6.0312,0.032,-0.026,-0.013,71.0,66.0,71.0,12.7,1504.7,88.4,-0.9,1.2,1990.643,13.28,0.041,129.1
09,2021-10-03T14:00:00,2000.0,42.79,6.0312,0.036,-0.026,-0.026,67.0,67.0,68.0,12.7,1504.7,91.1,-0.8,1.2,1990.68,13.28,0.044,125.8
09,2021-10-03T14:30:00,2000.0,42.79,6.0312,0.043,-0.031,-0.018,70.0,65.0,69.0,12.7,1504.7,85.5,-0.7,1.2,1990.725,13.28,0.053,125.8
09,2021-10-03T15:00:00,2000.0,42.79,6.0312,0.022,-0.027,-0.025,71.0,66.0,68.0,12.7,1504.7,95.8,-0.9,1.1,1990.703,13.28,0.034,140.8
09,2021-10-03T15:30:00,2000.0,42.79,6.0312,0.037,-0.032,-0.046,70.0,64.0,67.0,12.7,1504.7,84.3,-1.0,1.0,1990.739,13.28,0.048,130.9
09,2021-10-03T16:00:00,2000.0,42.79,6.0312,0.038,-0.022,-0.002,69.0,68.0,69.0,12.7,1504.7,81.7,-0.9,1.1,1990.757,13.28,0.043,120.1
09,2021-10-03T16:30:00,2000.0,42.79,6.0312,0.037,-0.045,-0.001,69.0,66.0,68.0,12.7,1504.7,82.1,-1.1,1.0,1990.8,13.28,0.058,140.6
09,2021-10-03T17:00:00,2000.0,42.79,6.0312,0.038,-0.036,0.008,71.0,64.0,68.0,12.7,1504.7,80.0,-0.5,1.1,1990.794,13.28,0.052,133.5
09,2021-10-03T17:30:00,2000.0,42.79,6.0312,0.029,-0.028,-0.005,71.0,69.0,71.0,12.8,1504.7,84.6,-1.0,1.0,1990.811,13.28,0.04,134.0
09,2021-10-03T18:00:00,2000.0,42.79,6.0312,0.055,-0.04,-0.001,70.0,66.0,68.0,12.7,1504.7,79.1,-1.0,1.0,1990.82,13.28,0.068,126.0
09,2021-10-03T18:30:00,2000.0,42.79,6.0312,0.037,-0.041,-0.026,71.0,67.0,67.0,12.7,1504.6,77.2,-0.9,1.1,1990.785,13.27,0.055,137.9
09,2021-10-03T19:00:00,2000.0,42.79,6.0312,0.046,-0.028,-0.008,69.0,65.0,68.0,12.7,1504.6,76.7,-1.0,1.2,1990.787,13.27,0.053,121.3
09,2021-10-03T19:30:00,2000.0,42.79,6.0312,0.028,-0.036,0.0,70.0,69.0,69.0,12.7,1504.6,78.8,-0.8,1.2,1990.764,13.27,0.045,142.1
09,2021-10-03T20:00:00,2000.0,42.79,6.0312,0.025,-0.014,-0.039,69.0,66.0,66.0,12.7,1504.6,82.2,-0.3,1.2,1990.766,13.27,0.028,119.3
09,2021-10-03T20:30:00,2000.0,42.79,6.0312,0.041,-0.056,-0.019,68.0,66.0,68.0,12.7,1504.6,76.2,-0.8,1.2,1990.728,13.27,0.069,143.8
09,2021-10-03T21:00:00,2000.0,42.79,6.0312,0.053,-0.032,0.011,70.0,65.0,69.0,12.7,1504.6,76.0,-0.7,1.2,1990.716,13.27,0.061,121.1
